Regional Weather Roundup
Issued by NWS Upton, NY

Current Version | Previous Version | Text Only | Print | Product List | Glossary On
Versions: 1 2 3 4 5 6 7 8 9 10 11 12 13 14 15 16 17 18 19 20 21 22 23 24 25 26 27 28 29 30
000
ASUS41 KOKX 211108
RWROKX

REGIONAL WEATHER ROUNDUP
NATIONAL WEATHER SERVICE NEW YORK NY
600 AM EST TUE NOV 21 2017

NOTE: "FAIR" INDICATES FEW OR NO CLOUDS BELOW 12,000 FEET WITH NO
SIGNIFICANT WEATHER AND/OR OBSTRUCTIONS TO VISIBILITY.

NYZ071-072-176-178-NJZ106-104-211200-
NEW YORK CITY METRO AREA

CITY           SKY/WX    TMP DP  RH WIND       PRES   REMARKS
Central Park   CLEAR     43  29  57 VRB3      30.15R
Bronx Bot Gard   N/A     41  30  65 SW6       30.15R
Bronx Lehman C   N/A     43  32  65 W3          N/A
LaGuardia APRT PTCLDY    44  30  57 SW15      30.12R
Queens College   N/A     43  32  65 SW7         N/A
Kennedy INTL   PTCLDY    41  33  73 SW16      30.15R
Breezy Point     N/A     43 N/A N/A SW13G21     N/A
Brooklyn Coll    N/A     45  32  61 SW7         N/A
Staten Island    N/A     39  32  75 S2          N/A
Newark/Liberty PTCLDY    37  27  67 W5        30.14R WCI  33
Teterboro      CLEAR     35  27  72 CALM      30.13R
$$

NYZ177-179-078>081-211200-
LONG ISLAND NEW YORK

CITY           SKY/WX    TMP DP  RH WIND       PRES   REMARKS
Jones Beach      N/A     48 N/A N/A SW12G17     N/A
Wantagh          N/A     46  32  57 SW7         N/A
Matinecock PT    N/A     45 N/A N/A SW12        N/A
Farmingdale    CLEAR     42  31  64 SW6       30.14R
MacArthur/ISP  PTCLDY    41  31  67 SW7       30.13S
Shirley        CLEAR     44  34  67 SW6       30.15R
Mt Sinai Harb    N/A    N/A N/A N/A S5          N/A
Westhampton    CLEAR     44  32  62 SW5       30.15S
East Hampton   FAIR      45  33  64 SW6       30.13F
Southold         N/A     41  32  70 SW7         N/A
Montauk          N/A     49  35  58 SW8G16    30.15S
$$

NYZ052-065-067-211200-
HUDSON VALLEY

CITY           SKY/WX    TMP DP  RH WIND       PRES   REMARKS
White Plains   CLEAR     38  26  62 CALM      30.11R
Larchmont Harb   N/A     45 N/A N/A SW8         N/A
Croton On Huds   N/A     41 N/A N/A S5          N/A
Somers           N/A     34  32  93 SW5         N/A  WCI  30
Brewster         N/A     30  32 100 CALM        N/A
Newburgh       NOT AVBL
Montgomery     CLEAR     26  22  84 CALM      30.08R
Suffern          N/A     34  32  93 S2          N/A
Poughkeepsie   CLEAR     27  22  81 CALM      30.09R
Albany         PTCLDY    35  23  61 VRB3      30.03S
$$

NJZ001-105-106-008-010-013-015-019>022-104-211200-
NEW JERSEY

CITY           SKY/WX    TMP DP  RH WIND       PRES   REMARKS
Newark/Liberty PTCLDY    37  27  67 W5        30.14R WCI  33
Teterboro      CLEAR     35  27  72 CALM      30.13R
Caldwell       CLEAR     33  27  78 CALM      30.13R
Somerville     CLEAR     25  24  96 CALM      30.12R
Linden         FAIR      35  27  71 CALM      30.14R
Perth Amboy      N/A     39 N/A N/A W7          N/A  WCI  34
Sussex         CLEAR     26  23  88 CALM      30.08S
Andover          N/A     27  24  89 SW3       30.09S
Trenton        CLEAR     33  27  78 CALM      30.13R
Millville      CLEAR     46  37  71 VRB5      30.16S
Atlantic City  CLEAR     44  34  67 SW9       30.16S
Wrightstown    CLEAR     38  33  79 SW7       30.12R WCI  33
Toms River     CLEAR     40  33  76 SW7       30.16R
Belmar         CLEAR     41  32  70 SW9       30.16R
$$

PAZ047>061-062-071-211200-
EASTERN PENNSYLVANIA

CITY           SKY/WX    TMP DP  RH WIND       PRES   REMARKS
Philadelphia   PTCLDY    42  31  64 S8        30.15R
Allentown      CLEAR     27  22  81 CALM      30.09F
Scranton       CLEAR     32  23  69 CALM      30.04F
$$

CTZ002-004>006-009-010-012-RIZ004-006-007-MAZ004-011-015-211200-
SOUTHERN NEW ENGLAND
 IN CT

CITY           SKY/WX    TMP DP  RH WIND       PRES   REMARKS
Bradley INTL   PTCLDY    32  24  72 SE5       30.09R WCI  27
Hartford       CLEAR     36  25  64 S5        30.10S WCI  32
Danbury        CLEAR     31  25  78 N3        30.11R
Wtrbury/Oxford CLEAR     35  22  58 SW3       30.09F
Norwalk Harbor   N/A     43 N/A N/A SW7         N/A
Bridgeport     CLEAR     40  26  57 VRB3      30.12S
Meriden        CLEAR     29  25  85 CALM      30.11S
New Haven      PTCLDY    34  24  67 CALM      30.12S
Chester        FAIR      39  28  65 SW5       30.10F
Groton         CLEAR     49  33  54 SW20G26   30.12S
Wilimantic     CLEAR     28  25  88 NE3       30.11S

 IN RI

CITY           SKY/WX    TMP DP  RH WIND       PRES   REMARKS
Providence     PTCLDY    37  31  78 SW3       30.12S
Block Island   CLEAR     49  37  63 SW17G23   30.14S
Westerly       CLEAR     48  34  58 SW9G18    30.14R
 IN MA

CITY           SKY/WX    TMP DP  RH WIND       PRES   REMARKS
Boston         PTCLDY    36  26  67 SW6       30.09S WCI  31
Worcester      CLEAR     29  22  75 SW9       30.05R WCI  20
Westfield      CLEAR     31  25  78 S6        30.06S WCI  25
Provincetown   CLEAR     46  34  62 SW18      30.12S
Nantucket      CLEAR     49  38  65 SW14      30.15S
$$

ANZ330-335-338-340-345-350-353-355-211200-
COASTAL MARINE OBSERVATIONS


STATION/POSITION TIME  SKY/WX   TEMP    WIND        PRES    VSBY  WAVE
                                AIR SEA DIR/SP/G                  HT/PER
                 (UTC)          (F)     (DEG/KT/KT) (MB)    (MI)  (FT/S)
NY HARB ENTRANCE 0950            51 58  230/ 21/ 25 1019.4          4/ 5
20 S FIRE ISLAND 0950            53 56  240/ 21/ 27 1020.6          7/ 6
GREAT SOUTH BAY  1015            47 46  240/ 10/ 14   N/A
HUDSON CANYON    0950            55 59  240/ 17/ 21 1021.6          4/ 6
KINGS POINT      1036            44 50  250/  6/  8 1020.9
EXECUTION ROCKS  1030            46     190/ 14/ 17   N/A
WESTERN LI SOUND 0949            47     220/ 14/ 19   N/A           1/ 3
CENTRAL LI SOUND 1000            49     230/ 17/ 21   N/A           3
ROBBINS REEF     1048            42     250/  7/  9 1021.0
$$


>>>>>>>>>>>>>>>>>>>>>>>>>>>> KEY <<<<<<<<<<<<<<<<<<<<<<<<<<<
>                                                          <
>     SKY/WX - Sky Condition/Present Weather               <
>     TMP    - Temperature in Fahrenheit                   <
>     DP     - Dew Point in Fahrenheit                     <
>     RH     - Relative Humidity in Percent                <
>     WIND   - Direction (from) and Speed in MPH           <
>     PRES   - Mean Sea Level Pressure (inches of Hg)      <
>     WCI    - Wind Chill Index                            <
>     VSB    - VISIBILITY IN MILES                         <
>     HX     - HEAT INDEX                                  <
>     TC     - TEMPERATURE IN CELSIUS                      <
>     VRB    - VARIABLE WIND DIRECTION                     <
>                                                          <
>>>>>>>>>>>>>>>>>>>>>>>>>>>> KEY <<<<<<<<<<<<<<<<<<<<<<<<<<<




USA.gov is the U.S. government's official web portal to all federal, state and local government web resources and services.